Terminal Aerodrome Forecast
Issued by NWS Twin Cities, MN

Home | Current Version | Previous Version | Text Only | Print | Product List | Glossary On
Versions: 1 2 3 4 5 6 7 8 9 10 11 12 13 14 15 16 17 18 19 20 21 22 23 24 25 26 27
000
FTUS43 KMPX 230800 AAB
TAFMSP
TAF AMD
KMSP 230856Z 2309/2412 06005KT 6SM BR OVC007
     FM231500 08006KT P6SM BKN020
     FM231800 09010KT P6SM SCT030 BKN120
     FM240000 12011KT P6SM SCT015 BKN200=

USA.gov is the U.S. government's official web portal to all federal, state and local government web resources and services.